{"data":{"norad_id":37237,"intl_designator":"2010-065A","name":"HYLAS 1","alt_names":[],"object_type":"PAYLOAD","status":"ACTIVE","operator":null,"country":"UK","launch_date":"2010-11-26","launch_site_code":"FRGUI","launch_vehicle":null,"mission":null,"orbit_class":"UNKNOWN","rcs_meters":119.9526,"size_class":null,"mass_kg":null,"dimensions":null,"purposes":["comms"],"wikipedia_slug":null,"has_3d_model":false,"image_url":null,"decayed_at":null,"tle_current":{"epoch":"2026-09-19T20:50:38.696352Z","epoch_age_seconds":72806,"freshness":"FRESH","line1":"1 37237U 10065A   26262.86850343 -.00000331  00000+0  00000+0 0  9995","line2":"2 37237   5.8762  71.8075 0003638 158.1687 203.9957  1.00639270  7848","mean_motion":1.0063927,"eccentricity":0.0003638,"inclination_deg":5.8762,"raan_deg":71.8075,"arg_perigee_deg":158.1687,"mean_anomaly_deg":203.9957,"bstar":0,"rev_number":784,"period_min":1430.8529861157,"perigee_km":35668.587017819,"apogee_km":35699.19134807,"semimajor_km":42062.026182945,"source":"CELESTRAK","updated_at":"2026-09-20T09:00:35.166206Z"}}}